Weather History for Winchester, TN

Change the Weather History Date:

Sunday, December 9, 2012

  Actual Average (KTHA) Record (KTHA)
Temperature  
Mean Temperature 64 °F -  
Max Temperature 71 °F 53 °F 69 °F (2012)
Min Temperature 57 °F 32 °F 30 °F (2013)
Degree Days  
Heating Degree Days 1    
Growing Degree Days 14 (Base 50)    
Moisture  
Dew Point 56 °F    
Average Humidity 75    
Maximum Humidity 94    
Minimum Humidity 57    
Precipitation  
Precipitation 0.00 in - - ()
Sea Level Pressure  
Sea Level Pressure 29.97 in    
Wind  
Wind Speed 8 mph (South)    
Max Wind Speed 16 mph    
Max Gust Speed -    
Visibility 10 miles    
Events      
Averages and records for this station are not official NWS values.
T = Trace of Precipitation, MM = Missing Value Source: NWS Daily Summary

Daily Weather History Graph

Daily Weather History Graph

Search for Another Location

Airport:

Trip Planner

Search our weather history database for the weather conditions in past years. The results will help you decide how hot, cold, wet, or windy it might be!

Date:

Astronomy

Dec. 09, 2012 Rise Set
Actual Time 7:41 AM EST 5:32 PM EST
Civil Twilight 7:13 AM EST 6:00 PM EST
Nautical Twilight 6:41 AM EST 6:32 PM EST
Astronomical Twilight 6:10 AM EST 7:02 PM EST
Moon 3:20 AM EST (12/9) 2:32 PM EST (12/9)
Length of Visible Light 10h 47m
Length of Day
9h 50m
Waning Crescent, 19% of the Moon is Illuminated
Dec 9
Waning Crescent
Dec 13
New
Dec 20
First Quarter
Dec 28
Full
Jan 4
Last Quarter

Hourly Weather History & Observations

Time (EST) Temp. Dew Point Humidity Pressure Visibility Wind Dir Wind Speed Gust Speed Precip Events Conditions
12:15 AM 60.8 °F 57.2 °F 88% 30.00 in 10.0 mi SSE 5.8 mph - N/A   Scattered Clouds
12:35 AM 60.8 °F 57.2 °F 88% 30.00 in 10.0 mi SSE 5.8 mph - N/A   Mostly Cloudy
12:55 AM 60.8 °F 57.2 °F 88% 30.00 in 10.0 mi South 5.8 mph - N/A   Overcast
1:35 AM 60.8 °F 57.2 °F 88% 30.00 in 10.0 mi South 4.6 mph - N/A   Overcast
1:55 AM 60.8 °F 57.2 °F 88% 30.00 in 10.0 mi South 4.6 mph - N/A   Overcast
2:15 AM 60.8 °F 57.2 °F 88% 30.00 in 10.0 mi SSE 6.9 mph - N/A   Overcast
2:35 AM 60.8 °F 57.2 °F 88% 30.00 in 10.0 mi SSE 5.8 mph - N/A   Overcast
2:55 AM 60.8 °F 57.2 °F 88% 30.00 in 10.0 mi South 5.8 mph - N/A   Overcast
3:15 AM 60.8 °F 57.2 °F 88% 30.00 in 10.0 mi SSE 6.9 mph - N/A   Mostly Cloudy
3:35 AM 60.8 °F 57.2 °F 88% 29.99 in 10.0 mi SSE 5.8 mph - N/A   Mostly Cloudy
3:55 AM 60.8 °F 55.4 °F 82% 29.99 in 10.0 mi SSE 3.5 mph - N/A   Mostly Cloudy
4:15 AM 60.8 °F 57.2 °F 88% 30.00 in 10.0 mi South 3.5 mph - N/A   Overcast
4:35 AM 60.8 °F 57.2 °F 88% 30.00 in 10.0 mi Calm Calm - N/A   Overcast
4:55 AM 59.0 °F 57.2 °F 94% 29.99 in 10.0 mi SE 3.5 mph - N/A   Mostly Cloudy
5:15 AM 57.2 °F 55.4 °F 94% 30.00 in 10.0 mi SE 3.5 mph - N/A   Mostly Cloudy
5:35 AM 59.0 °F 57.2 °F 94% 29.99 in 10.0 mi ESE 4.6 mph - N/A   Mostly Cloudy
5:55 AM 60.8 °F 57.2 °F 88% 29.99 in 10.0 mi SE 5.8 mph - N/A   Mostly Cloudy
6:15 AM 59.0 °F 57.2 °F 94% 30.00 in 10.0 mi SE 4.6 mph - N/A   Overcast
6:35 AM 60.8 °F 57.2 °F 88% 30.00 in 10.0 mi SSE 4.6 mph - N/A   Mostly Cloudy
6:55 AM 60.8 °F 57.2 °F 88% 30.00 in 10.0 mi SSE 5.8 mph - N/A   Overcast
7:15 AM 62.6 °F 57.2 °F 82% 30.00 in 10.0 mi South 6.9 mph - N/A   Overcast
7:35 AM 62.6 °F 57.2 °F 82% 30.00 in 10.0 mi South 9.2 mph - N/A   Overcast
7:55 AM 62.6 °F 57.2 °F 82% 30.00 in 10.0 mi South 11.5 mph - N/A   Overcast
8:15 AM 62.6 °F 57.2 °F 82% 30.00 in 10.0 mi South 11.5 mph - N/A   Overcast
8:35 AM 62.6 °F 57.2 °F 82% 30.00 in 10.0 mi South 9.2 mph - N/A   Mostly Cloudy
8:55 AM 62.6 °F 57.2 °F 82% 30.00 in 10.0 mi South 9.2 mph - N/A   Mostly Cloudy
9:15 AM 64.4 °F 57.2 °F 77% 30.01 in 10.0 mi South 8.1 mph - N/A   Mostly Cloudy
9:35 AM 64.4 °F 57.2 °F 77% 30.01 in 10.0 mi South 9.2 mph - N/A   Overcast
9:55 AM 66.2 °F 57.2 °F 73% 30.01 in 10.0 mi South 10.4 mph - N/A   Overcast
10:15 AM 66.2 °F 57.2 °F 73% 30.01 in 10.0 mi SSW 8.1 mph - N/A   Overcast
10:35 AM 66.2 °F 55.4 °F 68% 30.02 in 10.0 mi South 9.2 mph - N/A   Overcast
10:55 AM 66.2 °F 55.4 °F 68% 30.02 in 10.0 mi SSW 9.2 mph - N/A   Overcast
11:35 AM 66.2 °F 55.4 °F 68% 30.01 in 10.0 mi South 9.2 mph - N/A   Overcast
11:55 AM 68.0 °F 55.4 °F 64% 30.00 in 10.0 mi South 8.1 mph - N/A   Overcast
12:15 PM 66.2 °F 55.4 °F 68% 29.99 in 10.0 mi South 13.8 mph - N/A   Overcast
12:35 PM 68.0 °F 55.4 °F 64% 29.98 in 10.0 mi South 12.7 mph - N/A   Overcast
12:55 PM 68.0 °F 55.4 °F 64% 29.97 in 10.0 mi South 9.2 mph - N/A   Overcast
1:15 PM 68.0 °F 55.4 °F 64% 29.97 in 10.0 mi South 12.7 mph - N/A   Overcast
1:35 PM 66.2 °F 55.4 °F 68% 29.96 in 10.0 mi South 10.4 mph - N/A   Overcast
1:55 PM 68.0 °F 55.4 °F 64% 29.96 in 10.0 mi South 9.2 mph - N/A   Overcast
2:15 PM 68.0 °F 55.4 °F 64% 29.95 in 10.0 mi South 6.9 mph - N/A   Overcast
2:35 PM 69.8 °F 55.4 °F 60% 29.95 in 10.0 mi SSW 11.5 mph - N/A   Overcast
2:55 PM 69.8 °F 55.4 °F 60% 29.94 in 10.0 mi South 11.5 mph - N/A   Overcast
3:15 PM 69.8 °F 55.4 °F 60% 29.94 in 10.0 mi SSW 10.4 mph - N/A   Mostly Cloudy
3:35 PM 71.6 °F 55.4 °F 57% 29.94 in 10.0 mi South 13.8 mph - N/A   Mostly Cloudy
3:55 PM 69.8 °F 55.4 °F 60% 29.95 in 10.0 mi South 9.2 mph - N/A   Mostly Cloudy
4:15 PM 69.8 °F 55.4 °F 60% 29.94 in 10.0 mi SSW 12.7 mph - N/A   Partly Cloudy
4:35 PM 68.0 °F 55.4 °F 64% 29.94 in 10.0 mi South 9.2 mph - N/A   Clear
4:55 PM 66.2 °F 55.4 °F 68% 29.94 in 10.0 mi South 11.5 mph - N/A   Clear
5:15 PM 66.2 °F 53.6 °F 64% 29.94 in 10.0 mi South 10.4 mph - N/A   Clear
5:35 PM 64.4 °F 53.6 °F 68% 29.95 in 10.0 mi South 10.4 mph - N/A   Partly Cloudy
5:55 PM 64.4 °F 53.6 °F 68% 29.94 in 10.0 mi South 11.5 mph - N/A   Clear
6:15 PM 62.6 °F 53.6 °F 72% 29.94 in 10.0 mi South 16.1 mph - N/A   Clear
6:35 PM 62.6 °F 53.6 °F 72% 29.94 in 10.0 mi South 15.0 mph - N/A   Clear
6:55 PM 62.6 °F 53.6 °F 72% 29.94 in 10.0 mi South 12.7 mph - N/A   Clear
7:15 PM 62.6 °F 53.6 °F 72% 29.93 in 10.0 mi South 13.8 mph - N/A   Scattered Clouds
7:35 PM 62.6 °F 53.6 °F 72% 29.93 in 10.0 mi SSE 15.0 mph - N/A   Partly Cloudy
7:55 PM 62.6 °F 53.6 °F 72% 29.93 in 10.0 mi South 15.0 mph - N/A   Clear
8:15 PM 62.6 °F 53.6 °F 72% 29.92 in 10.0 mi South 16.1 mph - N/A   Clear
8:35 PM 62.6 °F 53.6 °F 72% 29.92 in 10.0 mi South 16.1 mph - N/A   Clear
8:55 PM 62.6 °F 53.6 °F 72% 29.91 in 10.0 mi South 15.0 mph - N/A   Clear
9:15 PM 62.6 °F 53.6 °F 72% 29.91 in 10.0 mi South 15.0 mph - N/A   Clear
9:35 PM 62.6 °F 53.6 °F 72% 29.91 in 10.0 mi South 13.8 mph - N/A   Clear
9:55 PM 62.6 °F 53.6 °F 72% 29.90 in 10.0 mi SSE 15.0 mph - N/A   Mostly Cloudy
10:15 PM 62.6 °F 53.6 °F 72% 29.90 in 10.0 mi SSE 15.0 mph - N/A   Mostly Cloudy
10:35 PM 62.6 °F 53.6 °F 72% 29.89 in 10.0 mi SSE 12.7 mph - N/A   Mostly Cloudy
10:55 PM 62.6 °F 53.6 °F 72% 29.88 in 10.0 mi SSE 12.7 mph - N/A   Mostly Cloudy
11:15 PM 64.4 °F 53.6 °F 68% 29.88 in 10.0 mi SSE 12.7 mph - N/A   Overcast
11:35 PM 64.4 °F 53.6 °F 68% 29.87 in 10.0 mi SSE 11.5 mph - N/A   Overcast
11:55 PM 64.4 °F 53.6 °F 68% 29.86 in 10.0 mi South 12.7 mph - N/A   Overcast